This demonstration page uses our WeatherBlox Daily Observations layout. Learn more.

Left ArrowRight Arrow

Hourly Observations for May 15, 2020

Temp ( °F °C ) Dew Point ( °F °C ) Humidity (%) Winds ( mph kmh ) Pressure ( in mb ) Visibility ( mi km ) Precip ( " mm )
12:52 am 00:52 Partly Cloudy with Patchy Fog 57 13.9 56 13.3 96 96 N 8 13 29.85 1011 7 11 0.00 0.00
1:52 am 01:52 Mostly Cloudy 56 13.3 51 10.6 84 84 N 10 17 29.84 1011 10 16 0.00 0.00
2:52 am 02:52 Partly Cloudy 54 12.2 48 8.9 80 80 N 9 15 29.86 1011 10 16 0.00 0.00
3:52 am 03:52 Clear 52 11.1 47 8.3 83 83 N 7 11 29.89 1012 10 16 0.00 0.00
4:52 am 04:52 Mostly Clear 52 11.1 46 7.8 80 80 N 8 13 29.91 1013 10 16 0.00 0.00
5:52 am 05:52 Mostly Clear 52 11.1 44 6.7 75 75 N 5 7 29.92 1013 10 16 0.00 0.00
6:52 am 06:52 Mostly Cloudy 54 12.2 44 6.7 69 69 NNW 7 11 29.97 1015 10 16 0.00 0.00
7:52 am 07:52 Mostly Cloudy 57 13.9 45 7.2 64 64 NW 6 9 29.98 1015 10 16 0.00 0.00
8:52 am 08:52 Mostly Cloudy 60 15.6 45 7.2 58 58 NNE 5 7 30.00 1016 10 16 0.00 0.00
9:52 am 09:52 Mostly Cloudy 62 16.7 44 6.7 52 52 Calm 30.01 1016 10 16 0.00 0.00
10:52 am 10:52 Mostly Cloudy 65 18.3 46 7.8 51 51 S 3 6 30.01 1016 10 16 0.00 0.00
11:52 am 11:52 Mostly Cloudy 69 20.6 44 6.7 41 41 E 8 13 30.01 1016 10 16 0.00 0.00
12:52 pm 12:52 Mostly Cloudy 73 22.8 44 6.7 35 35 NNE 7 11 29.99 1016 10 16 0.00 0.00
1:52 pm 13:52 Partly Cloudy 74 23.3 43 6.1 33 33 VRB 3 6 29.96 1015 10 16 0.00 0.00
2:52 pm 14:52 Partly Cloudy 77 25 40 4.4 26 26 VRB 5 7 29.94 1014 10 16 0.00 0.00
3:52 pm 15:52 Partly Cloudy 79 26.1 40 4.4 25 25 VRB 3 6 29.93 1013 10 16 0.00 0.00
4:52 pm 16:52 Partly Cloudy 78 25.6 39 3.9 25 25 E 7 11 29.92 1013 10 16 0.00 0.00
5:52 pm 17:52 Mostly Sunny 79 26.1 38 3.3 23 23 NNE 7 11 29.92 1013 10 16 0.00 0.00
6:52 pm 18:52 Partly Cloudy 78 25.6 38 3.3 24 24 E 7 11 29.91 1013 10 16 0.00 0.00
7:52 pm 19:52 Mostly Cloudy 74 23.3 39 3.9 28 28 ENE 9 15 29.93 1013 10 16 0.00 0.00
8:52 pm 20:52 Partly Cloudy 71 21.7 38 3.3 30 30 ENE 10 17 29.92 1013 10 16 0.00 0.00
9:52 pm 21:52 Partly Cloudy 67 19.4 38 3.3 35 35 E 7 11 29.94 1014 10 16 0.00 0.00
10:52 pm 22:52 Mostly Cloudy 64 17.8 42 5.6 45 45 Calm 29.97 1015 10 16 0.00 0.00
11:52 pm 23:52 Mostly Cloudy 61 16.1 40 4.4 46 46 Calm 29.96 1015 10 16 0.00 0.00

Powered by AerisWeather